{"data":{"norad_id":53548,"epoch":"2026-09-20T13:20:14.289216Z","epoch_age_seconds":73419,"freshness":"FRESH","line1":"1 53548U 22101X   26263.55572094  .00000346  00000+0  39844-4 0  9991","line2":"2 53548  53.1597 268.6712 0001256  81.0537 279.0597 15.08834666225721","mean_motion":15.08834666,"eccentricity":0.0001256,"inclination_deg":53.1597,"raan_deg":268.6712,"arg_perigee_deg":81.0537,"mean_anomaly_deg":279.0597,"bstar":3.9844e-5,"rev_number":22572,"period_min":95.437892066565,"perigee_km":538.89080509161,"apogee_km":540.62858074087,"semimajor_km":6917.8966929162,"source":"CELESTRAK","updated_at":"2026-09-21T09:00:32.923914Z"}}